Back to catalog

COSMOS 1927

AliveMilitaryLEO
NORAD 18940·PAYLOAD·🇷🇺 Russia

Launched Mar 11, 1988 from Plesetsk Cosmodrome

Loading…

Next Passes (next 24 hours)

TLE

FreshSource: Space-Track

Epoch: Sep 14, 2026, 09:50 UTC

1 18940U 88016D   26257.41023416  .00000010  00000-0  17197-3 0  9997
2 18940  74.0061 152.6356 0007038  96.8609  22.4614 12.50921769758681

Track COSMOS 1927 in real time with AllMySat

Download on the App Store